Flag for Norway Weather past 2 weeks in Halden, Norway

Now
68 °F

Mild.


Feels Like: 68 °F
Forecast: 62 / 79 °F
Wind: 7 mph from South

Location: Stromtangen Fyr

Current Time: Aug 2, 2014 at 1:25:16 AM

Latest Report: Aug 2, 2014 at 12:00 AM


Visibility: N/A

Pressure: 29.92 "Hg

Humidity: 75%

Dew point: 60 °F

Location of HaldenLocation

Historic Weather in Halden — Graph

°F

Halden temperature yesterday

Maximum temperature yesterday: 69 °F (at 5:00 PM)
Minimum temperature yesterday: 64 °F (at 8:00 AM)
Average temperature yesterday: 67 °F

Past Weeks' High & Low Weather Summary

 TemperatureHumidityPressure
High82 °F (Jul 26, 4:00 PM)89% (Jul 18, 6:00 AM)30.30 "Hg (Jul 18, 6:00 AM)
Low60 °F (Jul 19, 5:00 AM)44% (Jul 20, 3:00 PM)29.62 "Hg (Jul 30, 8:00 PM)
Average71 °F70%30.00 "Hg
* Reported Midnight between Jul 17 and Jul 18 — Midnight between Aug 1 and Aug 2, Halden, Weather by CustomWeather, © 2014

Note: Actual official high and low records may vary slightly from our data, if they occured in-between our weather recording intervals... More about our weather records

Advertising

Halden weather history for previous 24 hours

 ConditionsComfort  
Time TempWeatherWind HumidityBarometerVisibility
12:00 AM
Aug 2
68 °FMild.7 mph75%29.92 "HgN/A
11:00 PM
Aug 1
68 °FMild.7 mph73%29.90 "HgN/A
10:00 PM68 °FMild.9 mph72%29.90 "HgN/A
9:00 PM68 °FMild.9 mph73%29.89 "HgN/A
8:00 PM68 °FMild.9 mph72%29.88 "HgN/A
7:00 PM68 °FMild.10 mph74%29.88 "HgN/A
6:00 PM68 °FMild.13 mph71%29.87 "HgN/A
5:00 PM69 °FMild.13 mph71%29.86 "HgN/A
4:00 PM68 °FMild.14 mph68%29.85 "HgN/A
3:00 PM68 °FMild.14 mph69%29.85 "HgN/A
2:00 PM68 °FMild.14 mph67%29.84 "HgN/A
1:00 PM67 °FMild.14 mph66%29.83 "HgN/A
12:00 PM66 °FMild.13 mph69%29.82 "HgN/A
11:00 AM66 °FMild.15 mph70%29.80 "HgN/A
10:00 AM65 °FMild.14 mph72%29.79 "HgN/A
9:00 AM65 °FMild.14 mph73%29.77 "HgN/A
8:00 AM64 °FMild.12 mph75%29.76 "HgN/A
7:00 AM65 °FMild.13 mph77%29.75 "HgN/A
6:00 AM65 °FMild.13 mph75%29.74 "HgN/A
5:00 AM65 °FMild.12 mph79%29.73 "HgN/A
4:00 AM66 °FMild.13 mph75%29.73 "HgN/A
3:00 AM66 °FMild.12 mph68%29.73 "HgN/A
2:00 AM67 °FMild.12 mph68%29.73 "HgN/A
1:00 AM67 °FMild.14 mph73%29.73 "HgN/A
Weather by CustomWeather, © 2014

See weather overviewHow to use our weather pages